Location: *
(26.6945°S, 98.1358°E)
Time: 05:14:29
(UTC+00:00)

Daily predictions for brighter satellites

Satellite Brightness Start Highest point End
(mag) Time Altitude Azimuth Time Altitude Azimuth Time Altitude Azimuth
Centaur D-1AR AC-36 4.3 10:14:29 10° WNW 10:19:57 68° N 11:11:09 10° E
Centaur D-1AR AC-36 4.3 10:14:29 10° WNW 10:19:57 68° N 11:11:10 10° E
Centaur D-1AR AC-36 4.3 10:14:30 10° WNW 10:19:57 68° N 11:11:10 10° E
Cosmos 1782 3.4 11:00:00 10° SSW 11:03:58 62° W 11:07:55 10° N
Cosmos 1680 Rocket 4.2 10:58:45 10° NNW 11:03:58 60° WSW 11:09:13 10° S
ALOS 4.4 11:00:22 10° SSW 11:04:22 28° WSW 11:08:19 10° NW
Cosmos 2219 Rocket 3.8 11:01:38 10° NW 11:06:45 35° WSW 11:11:56 10° S
SL-4 R/B 3.6 11:05:30 10° S 11:07:52 15° SE 11:10:19 10° ESE
Cosmos 1805 Rocket 4.4 11:05:32 10° NNW 11:09:49 55° W 11:14:10 10° S
STARLINK-1031 4.4 11:07:04 10° NNW 11:10:53 36° NE 11:14:44 10° ESE
STARLINK-1024 4.2 11:11:55 10° NNW 11:15:50 41° NE 11:19:46 10° SE
Cosmos 1238 Rocket 3.4 11:11:37 10° N 11:16:35 52° E 11:20:44 10° SSE
Cosmos 2100 Rocket 4.5 11:11:01 10° NNE 11:16:42 38° E 11:22:22 10° SSE
Cosmos 1844 3.9 11:11:28 10° SSW 11:17:03 78° WNW 11:22:36 10° NNE
Cosmos 1812 3.0 11:15:40 10° S 11:19:23 43° E 11:23:04 10° NNE
STARLINK-1035 4.0 11:16:49 10° NNW 11:20:48 47° NE 11:24:34 12° SE
Cosmos 1980 3.9 11:16:26 10° NNW 11:22:05 79° WSW 11:27:49 10° SSE
Lacrosse 5 rocket 1.4 11:18:26 10° NNW 11:22:33 87° NE 11:26:59 10° SE
Centaur D-1AR AC-39 4.0 11:20:55 10° N 11:23:05 14° NE 11:26:09 10° ENE
FUSE 4.2 11:19:12 10° WNW 11:24:28 63° N 11:29:27 12° E
STARLINK-1032 3.9 11:21:43 10° NNW 11:25:46 54° NE 11:29:22 13° SE
Meteor 2-6 Rocket 4.4 11:20:17 10° S 11:25:49 80° W 11:31:27 10° N
Helios 1A Rocket 3.6 11:23:21 10° SSE 11:27:04 34° E 11:30:44 10° NNE
Cosmos 1153 Rocket 4.5 11:20:58 10° N 11:27:07 85° E 11:33:19 10° S
Fermi 4.1 11:25:27 10° W 11:29:34 65° N 11:33:35 11° ENE
TIMED 4.5 11:25:37 10° N 11:29:59 80° ENE 11:34:24 10° SSE
STARLINK-1011 3.7 11:26:38 10° NNW 11:30:44 62° NE 11:34:09 15° SE
Envisat 3.1 11:26:51 10° SSE 11:31:55 60° E 11:36:55 10° N
STARLINK-1037 3.7 11:27:59 10° NNW 11:32:05 66° NE 11:35:28 15° SE
Cosmos 1470 Rocket 3.8 11:31:01 10° NNE 11:35:21 50° E 11:39:45 10° SSE
STARLINK-1036 3.6 11:31:33 10° NNW 11:35:41 71° NE 11:38:55 16° SE
STARLINK-1044 3.6 11:36:30 10° NW 11:40:39 81° NE 11:43:42 18° SE
ATLAS 5 CENTAUR R/B 3.3 11:35:30 10° NW 11:42:37 59° WSW 11:49:28 10° SSE
Cosmos 1441 Rocket 3.5 11:39:03 10° N 11:42:53 48° E 11:46:40 10° SSE
Cosmos 1707 Rocket 3.5 11:38:36 10° S 11:43:03 89° E 11:47:25 10° N
Feng Yun 1-1 Rocket 4.4 11:38:00 10° SSE 11:43:16 48° ENE 11:48:32 10° N
Cosmos 2016 Rocket 4.4 11:37:59 10° NNE 11:43:41 40° E 11:49:31 10° SSE
Cosmos 2173 Rocket 4.0 11:39:10 10° N 11:45:23 67° E 11:51:37 10° SSE
STARLINK-1047 3.6 11:41:30 10° NW 11:45:39 88° SW 11:48:30 20° SE
SL-24 R/B - RUBIN 2 4.3 11:40:38 10° NW 11:46:03 66° WSW 11:50:50 10° SSE
Cosmos 405 4.2 11:44:17 10° SSW 11:47:40 43° W 11:50:59 10° NNW
Meteor 1-27 Rocket 3.8 11:42:33 10° S 11:48:32 78° E 11:54:28 10° N
Palapa 6 Rocket 4.2 11:45:40 10° WNW 11:49:30 37° N 11:53:32 12° ENE
Cosmos 2237 Rocket 3.3 11:44:47 10° NW 11:50:10 45° WSW 11:55:37 10° S
Cosmos 1624 Rocket 4.2 11:45:48 10° S 11:50:54 48° ESE 11:55:57 10° NNE
Cosmos 1459 Rocket 3.9 11:46:08 10° N 11:52:15 76° E 11:58:33 10° S
STARLINK-1059 3.8 11:51:26 10° NW 11:55:34 69° SW 11:58:03 23° SSE
